Weather Roundup
Issued by NWS Corpus Christi, TX

Home | Current Version | Previous Version | Text Only | Print | Product List | Glossary On
Versions: 1 2 3 4 5 6 7 8 9 10 11 12 13 14 15 16 17 18 19 20 21 22 23 24 25 26 27 28 29 30 31 32 33 34 35 36 37 38 39 40 41 42 43 44 45 46 47 48 49 50
000
ASUS44 KCRP 301410
HRRCRP

SOUTH TEXAS REGIONAL WEATHER ROUNDUP
NATIONAL WEATHER SERVICE CORPUS CHRISTI TX
900 AM CDT SAT AUG 30 2014


TXZ229>244-301500-
...CORPUS CHRISTI AREA OBSERVATIONS...

CITY           SKY/WX    TMP DP  RH WIND       PRES   REMARKS
CORPUS CHRISTI LGT RAIN  76  74  93 SE6       29.93R
NAS CORPUS CHR NOT AVBL
ROCKPORT       CLOUDY    77  74  90 S5        29.93R
KINGSVILLE NAS CLOUDY    77  76  96 S6        29.94R THUNDER
ALICE          CLOUDY    77  75  93 SE14      29.92R
FALFURRIAS     CLOUDY    67  64  91 E10       29.92R
$$

...VICTORIA AREA OBSERVATIONS...

CITY           SKY/WX    TMP DP  RH WIND       PRES   REMARKS
VICTORIA       PTSUNNY   78  75  90 E6        29.94R
BEEVILLE       CLOUDY    76  76 100 E6        29.93S
PLEASANTON     MOSUNNY   80  74  81 NE3       29.94R
SAN ANTONIO    MOSUNNY   80  73  79 CALM      29.95R
$$

...LAREDO AREA OBSERVATIONS...

CITY           SKY/WX    TMP DP  RH WIND       PRES   REMARKS
LAREDO         SUNNY     81  74  79 E6        29.93R
COTULLA        MOSUNNY   81  73  76 E7        29.93R
DEL RIO        SUNNY     80  71  74 E8        29.94R
MCALLEN        CLOUDY    77  75  93 E6        29.89R
HEBBRONVILLE   SUNNY     77  74  90 E7        29.93R THUNDER
$$

...OTHER TEXAS OBSERVATIONS...

CITY           SKY/WX    TMP DP  RH WIND       PRES   REMARKS
BROWNSVILLE    LGT RAIN  77  75  93 SW6       29.89R
HOUSTON        PTSUNNY   79  73  83 CALM      29.93R
COL. STATION   PTSUNNY   77  72  84 CALM      29.96R
AUSTIN         CLOUDY    78  73  84 CALM      29.95R
WACO           CLOUDY    75  72  90 CALM      29.97R
FORT WORTH     MOSUNNY   79  72  79 SE6       29.96R
WICHITA FALLS  SUNNY     75  70  84 CALM      29.96F
LUBBOCK        MOSUNNY   72  66  81 NW3       30.09R
EL PASO        MOSUNNY   73  53  49 N7        30.08R
$$

...MARINE OBSERVATIONS...

STATION/POSITION TIME  SKY/WX   TEMP    WIND        PRES    VSBY  WAVE   SWELL
                                AIR SEA DIR/SP/G                  HT/PER HT/PER
                 (UTC)          (F)     (DEG/KT/KT) (MB)    (MI)  (FT/S) (FT/S)
PORT ARANSAS     1400            80 84  160/  9/ 11 1014.2R
BUOY 90 E PORT A 1400            77 85  270/ 16/ 19 1013.7R
BUOY 45 SE BAFFI 1400            77 85  280/ 16/ 17 1012.2R         3/ 7
BUOY 200 E PT IS 1400            83 86  160/ 16/ 19 1012.9R         5/ 7
BUOY 15 E GALVES 1400            81 85  220/ 16/ 21 1012.4R         4/ 6
$$


USA.gov is the U.S. government's official web portal to all federal, state and local government web resources and services.